Flag for Russia Past Weather in Petropavlovsk-Kamchatsky, Russia — Yesterday and Last 2 Weeks

Now
9 °F

Partly sunny.


Feels Like: 2 °F
Forecast: 11 / 20 °F
Wind: 3 mph from Northwest

Location: Petropavlovsk-Kamchatskij

Current Time: Jan 24, 2017 at 1:30:12 pm

Latest Report: Jan 24, 2017 at 12:30 pm


Visibility: N/A

Pressure: 29.65 "Hg

Humidity: 66%

Dew Point: 0 °F

Location of Petropavlovsk-KamchatskyLocation

Past Weather in Petropavlovsk-Kamchatsky — Graph

°F

Petropavlovsk-Kamchatsky Temperature Yesterday

Maximum temperature yesterday: 12 °F (at 4:00 pm)
Minimum temperature yesterday: -2 °F (at 9:00 am)
Average temperature yesterday: 4 °F

High & Low Weather Summary for the Past Weeks

 TemperatureHumidityPressure
High36 °F (Jan 11, 1:00 pm)100% (Jan 12, 5:30 pm)30.09 "Hg (Jan 12, 5:30 pm)
Low-18 °F (Jan 19, 7:00 am)40% (Jan 10, 2:30 pm)29.21 "Hg (Jan 9, 12:00 pm)
Average12 °F67%29.87 "Hg
* Reported Jan 9 12:00 pm — Jan 24 12:00 pm, Petropavlovsk-Kamchatsky, Weather by CustomWeather, © 2017

Note: Actual official high and low records may vary slightly from our data, if they occured in-between our weather recording intervals... More about our weather records

Advertising

Petropavlovsk-Kamchatsky Weather History for the Previous 24 Hours

Scroll right to see more
 ConditionsComfort  
Time TempWeatherWind HumidityBarometerVisibility
12:00 pm
Tue, Jan 24
9 °FSnow flurries. Partly sunny.3 mph66%29.65 "HgN/A
11:30 am7 °FLight snow. Partly sunny.3 mph66%29.65 "HgN/A
11:00 am7 °FLight snow. Partly sunny.3 mph66%29.65 "HgN/A
10:30 am3 °FPartly sunny.3 mph72%29.68 "HgN/A
10:00 am3 °FPartly sunny.3 mph72%29.68 "HgN/A
9:30 am1 °FPartly sunny.1 mph71%29.68 "HgN/A
9:00 am1 °FClear.1 mph71%29.68 "HgN/A
8:30 am1 °FClear.3 mph65%29.68 "HgN/A
8:00 am1 °FPassing clouds.3 mph71%29.68 "HgN/A
7:30 am3 °FPassing clouds.6 mph66%29.68 "HgN/A
6:00 am1 °FSnow flurries. Passing clouds.6 mph65%29.68 "HgN/A
5:00 am0 °FPassing clouds.6 mph65%29.71 "HgN/A
4:00 am0 °FPassing clouds.6 mph65%29.71 "HgN/A
3:00 am-4 °FPassing clouds.6 mph71%29.74 "HgN/A
2:00 am-2 °FPassing clouds.3 mph65%29.74 "HgN/A
1:00 am0 °FPassing clouds.10 mph65%29.74 "HgN/A
12:00 am0 °FPassing clouds.13 mph65%29.74 "HgN/A
11:00 pm
Mon, Jan 23
-2 °FClear.8 mph71%29.77 "HgN/A
10:00 pm-2 °FClear.3 mph71%29.77 "HgN/A
9:00 pm1 °FClear.6 mph65%29.77 "HgN/A
8:00 pm3 °FClear.8 mph66%29.74 "HgN/A
7:00 pm3 °FClear.3 mph72%29.74 "HgN/A
6:30 pm5 °FClear.3 mph66%29.74 "HgN/A
6:00 pm7 °FClear.1 mph61%29.74 "HgN/A
5:30 pm9 °FClear.1 mph56%29.74 "HgN/A
5:00 pm10 °FClear.1 mph52%29.71 "HgN/A
4:30 pm12 °FClear.1 mph52%29.71 "HgN/A
4:00 pm12 °FClear.1 mph52%29.71 "HgN/A
3:30 pm10 °FClear.6 mph56%29.71 "HgN/A
3:00 pm10 °FClear.3 mph56%29.74 "HgN/A
2:30 pm10 °FClear.6 mph52%29.74 "HgN/A
2:00 pm9 °FClear.3 mph56%29.74 "HgN/A
1:30 pm7 °FClear.3 mph61%29.77 "HgN/A
1:00 pm5 °FClear.6 mph66%29.77 "HgN/A
Weather by CustomWeather, © 2017

See weather overviewHow to use our weather pages